Time,TemperatureF,DewpointF,PressureIn,WindDirection,WindDirectionDegrees,WindSpeedMPH,WindSpeedGustMPH,Humidity,HourlyPrecipIn,Conditions,Clouds,dailyrainin,SoftwareType,DateUTC
2013-02-06 00:00:00,60.9,43.7,29.92,SSE,152,0.0,3.0,53,0.00,,SKC,0.01,VWS V14.01,2013-02-06 06:00:00,
2013-02-06 00:05:00,60.8,43.6,29.91,SE,136,0.0,1.0,53,0.00,,SKC,0.00,VWS V14.01,2013-02-06 06:05:00,
2013-02-06 00:10:00,60.7,43.5,29.91,SE,136,0.0,1.0,53,0.00,,SKC,0.00,VWS V14.01,2013-02-06 06:10:00,
2013-02-06 00:15:00,60.5,43.8,29.90,SE,136,1.0,1.0,54,0.00,,SKC,0.00,VWS V14.01,2013-02-06 06:15:00,
2013-02-06 00:20:00,60.4,43.7,29.90,SE,126,0.0,0.0,54,0.00,,SKC,0.00,VWS V14.01,2013-02-06 06:20:00,
2013-02-06 00:25:00,60.2,43.5,29.91,NNW,336,0.0,0.0,54,0.00,,SKC,0.00,VWS V14.01,2013-02-06 06:25:00,
2013-02-06 00:30:00,60.0,43.8,29.91,NNW,336,0.0,0.0,55,0.00,,SKC,0.00,VWS V14.01,2013-02-06 06:30:00,
2013-02-06 00:35:00,59.5,43.8,29.92,NNW,336,0.0,0.0,56,0.00,,SKC,0.00,VWS V14.01,2013-02-06 06:35:00,
2013-02-06 00:40:00,59.3,43.6,29.92,NNW,336,0.0,1.0,56,0.00,,SKC,0.00,VWS V14.01,2013-02-06 06:40:00,
2013-02-06 00:45:00,59.1,43.9,29.92,NNW,336,2.0,2.0,57,0.00,,SKC,0.00,VWS V14.01,2013-02-06 06:45:00,
2013-02-06 00:50:00,59.0,43.8,29.91,NNW,336,0.0,1.0,57,0.00,,SKC,0.00,VWS V14.01,2013-02-06 06:50:00,
2013-02-06 00:55:00,58.8,43.6,29.92,NNW,336,1.0,1.0,57,0.00,,SKC,0.00,VWS V14.01,2013-02-06 06:55:00,
2013-02-06 01:00:00,58.4,44.1,29.91,NNW,336,0.0,1.0,59,0.00,,SKC,0.00,VWS V14.01,2013-02-06 07:00:00,
2013-02-06 01:05:00,58.1,43.9,29.91,ESE,118,0.0,1.0,59,0.00,,SKC,0.00,VWS V14.01,2013-02-06 07:05:00,
2013-02-06 01:10:00,57.8,44.0,29.92,ESE,118,0.0,0.0,60,0.00,,SKC,0.00,VWS V14.01,2013-02-06 07:10:00,
2013-02-06 01:15:00,57.5,44.2,29.92,ESE,121,0.0,0.0,61,0.00,,SKC,0.00,VWS V14.01,2013-02-06 07:15:00,
2013-02-06 01:20:00,57.4,44.5,29.92,ESE,121,0.0,0.0,62,0.00,,SKC,0.00,VWS V14.01,2013-02-06 07:20:00,
2013-02-06 01:25:00,57.4,44.9,29.92,ESE,121,0.0,0.0,63,0.00,,SKC,0.00,VWS V14.01,2013-02-06 07:25:00,
2013-02-06 01:30:00,57.4,44.9,29.92,ESE,121,0.0,0.0,63,0.00,,SKC,0.00,VWS V14.01,2013-02-06 07:30:00,
2013-02-06 01:35:00,57.4,45.3,29.92,ESE,121,0.0,0.0,64,0.00,,SKC,0.00,VWS V14.01,2013-02-06 07:35:00,
2013-02-06 01:40:00,57.4,45.3,29.92,SE,126,3.0,4.0,64,0.00,,SKC,0.00,VWS V14.01,2013-02-06 07:40:00,
2013-02-06 01:45:00,57.3,45.2,29.92,SE,126,0.0,0.0,64,0.00,,SKC,0.00,VWS V14.01,2013-02-06 07:45:00,
2013-02-06 01:50:00,57.3,45.7,29.92,ESE,115,0.0,1.0,65,0.00,,SKC,0.00,VWS V14.01,2013-02-06 07:50:00,
2013-02-06 01:55:00,57.2,45.6,29.92,SE,129,1.0,1.0,65,0.00,,SKC,0.00,VWS V14.01,2013-02-06 07:55:00,
2013-02-06 02:00:00,56.7,44.7,29.92,SE,129,1.0,1.0,64,0.00,,SKC,0.00,VWS V14.01,2013-02-06 08:00:00,
2013-02-06 02:05:00,56.3,44.7,29.92,SE,129,1.0,2.0,65,0.00,,SKC,0.00,VWS V14.01,2013-02-06 08:05:00,
2013-02-06 02:10:00,56.3,44.7,29.92,SSE,147,2.0,2.0,65,0.00,,SKC,0.00,VWS V14.01,2013-02-06 08:10:00,
2013-02-06 02:15:00,56.3,44.7,29.92,SSE,148,2.0,2.0,65,0.00,,SKC,0.00,VWS V14.01,2013-02-06 08:15:00,
2013-02-06 02:20:00,56.3,44.7,29.92,SSE,161,2.0,2.0,65,0.00,,SKC,0.00,VWS V14.01,2013-02-06 08:20:00,
2013-02-06 02:25:00,56.5,45.3,29.92,SSE,161,2.0,2.0,66,0.00,,SKC,0.00,VWS V14.01,2013-02-06 08:25:00,
2013-02-06 02:30:00,56.6,45.4,29.92,SSE,168,3.0,5.0,66,0.00,,SKC,0.00,VWS V14.01,2013-02-06 08:30:00,
2013-02-06 02:35:00,56.3,44.7,29.92,SSE,156,4.0,4.0,65,0.00,,SKC,0.00,VWS V14.01,2013-02-06 08:35:00,
2013-02-06 02:40:00,56.1,45.3,29.91,South,173,6.0,8.0,67,0.00,,SKC,0.00,VWS V14.01,2013-02-06 08:40:00,
2013-02-06 02:45:00,56.4,45.6,29.91,SSE,168,5.0,5.0,67,0.00,,SKC,0.00,VWS V14.01,2013-02-06 08:45:00,
2013-02-06 02:50:00,56.7,45.5,29.91,SSE,168,1.0,3.0,66,0.00,,SKC,0.00,VWS V14.01,2013-02-06 08:50:00,
2013-02-06 02:55:00,56.7,45.9,29.91,South,169,2.0,3.0,67,0.00,,SKC,0.00,VWS V14.01,2013-02-06 08:55:00,
2013-02-06 03:00:00,56.7,45.9,29.91,South,169,1.0,1.0,67,0.00,,SKC,0.00,VWS V14.01,2013-02-06 09:00:00,
2013-02-06 03:05:00,56.5,45.7,29.92,South,169,1.0,2.0,67,0.00,,SKC,0.00,VWS V14.01,2013-02-06 09:05:00,
2013-02-06 03:10:00,56.3,45.5,29.91,South,169,0.0,0.0,67,0.00,,SKC,0.00,VWS V14.01,2013-02-06 09:10:00,
2013-02-06 03:15:00,56.3,45.9,29.91,South,169,1.0,2.0,68,0.00,,SKC,0.00,VWS V14.01,2013-02-06 09:15:00,
2013-02-06 03:20:00,56.5,46.1,29.91,South,169,0.0,2.0,68,0.00,,SKC,0.00,VWS V14.01,2013-02-06 09:20:00,
2013-02-06 03:25:00,56.6,45.8,29.91,South,169,1.0,2.0,67,0.00,,SKC,0.00,VWS V14.01,2013-02-06 09:25:00,
2013-02-06 03:30:00,56.6,45.8,29.92,South,169,2.0,2.0,67,0.00,,SKC,0.00,VWS V14.01,2013-02-06 09:30:00,
2013-02-06 03:35:00,56.6,45.8,29.92,South,169,3.0,4.0,67,0.00,,SKC,0.00,VWS V14.01,2013-02-06 09:35:00,
2013-02-06 03:40:00,56.7,46.3,29.91,South,169,1.0,2.0,68,0.00,,SKC,0.00,VWS V14.01,2013-02-06 09:40:00,
2013-02-06 03:45:00,56.8,46.0,29.92,South,169,0.0,1.0,67,0.00,,SKC,0.00,VWS V14.01,2013-02-06 09:45:00,
2013-02-06 03:50:00,57.0,46.6,29.91,South,169,0.0,1.0,68,0.00,,SKC,0.00,VWS V14.01,2013-02-06 09:50:00,
2013-02-06 03:55:00,57.2,46.8,29.91,South,189,5.0,6.0,68,0.00,,SKC,0.00,VWS V14.01,2013-02-06 09:55:00,
2013-02-06 04:00:00,57.4,47.3,29.91,South,175,3.0,4.0,69,0.00,,SKC,0.00,VWS V14.01,2013-02-06 10:00:00,
2013-02-06 04:05:00,57.3,47.6,29.91,South,175,3.0,3.0,70,0.00,,SKC,0.00,VWS V14.01,2013-02-06 10:05:00,
2013-02-06 04:10:00,57.1,47.4,29.90,SSE,165,4.0,7.0,70,0.00,,SKC,0.00,VWS V14.01,2013-02-06 10:10:00,
2013-02-06 04:15:00,56.9,47.2,29.90,SSE,164,3.0,5.0,70,0.00,,SKC,0.00,VWS V14.01,2013-02-06 10:15:00,
2013-02-06 04:20:00,56.9,47.6,29.91,South,175,3.0,6.0,71,0.00,,SKC,0.00,VWS V14.01,2013-02-06 10:20:00,
2013-02-06 04:25:00,57.0,48.8,29.91,SSE,163,4.0,4.0,74,0.00,,SKC,0.00,VWS V14.01,2013-02-06 10:25:00,
2013-02-06 04:30:00,57.1,48.9,29.91,South,169,3.0,7.0,74,0.00,,SKC,0.00,VWS V14.01,2013-02-06 10:30:00,
2013-02-06 04:35:00,57.2,49.0,29.92,SSE,167,3.0,4.0,74,0.00,,SKC,0.00,VWS V14.01,2013-02-06 10:35:00,
2013-02-06 04:40:00,57.2,49.4,29.93,South,190,4.0,4.0,75,0.00,,SKC,0.00,VWS V14.01,2013-02-06 10:40:00,
2013-02-06 04:45:00,57.0,49.5,29.92,South,180,2.0,3.0,76,0.00,,SKC,0.00,VWS V14.01,2013-02-06 10:45:00,
2013-02-06 04:50:00,57.0,50.2,29.92,SSE,168,4.0,4.0,78,0.00,,SKC,0.00,VWS V14.01,2013-02-06 10:50:00,
2013-02-06 04:55:00,57.0,50.6,29.93,South,171,4.0,6.0,79,0.00,,SKC,0.00,VWS V14.01,2013-02-06 10:55:00,
2013-02-06 05:00:00,57.1,51.0,29.92,South,176,7.0,7.0,80,0.00,,SKC,0.00,VWS V14.01,2013-02-06 11:00:00,
2013-02-06 05:05:00,57.3,51.2,29.92,SSE,162,3.0,6.0,80,0.00,,SKC,0.00,VWS V14.01,2013-02-06 11:05:00,
2013-02-06 05:10:00,57.3,51.5,29.92,South,178,3.0,7.0,81,0.00,,SKC,0.00,VWS V14.01,2013-02-06 11:10:00,
2013-02-06 05:15:00,57.3,51.5,29.92,South,169,4.0,5.0,81,0.00,,SKC,0.00,VWS V14.01,2013-02-06 11:15:00,
2013-02-06 05:20:00,57.2,51.4,29.92,South,173,6.0,6.0,81,0.00,,SKC,0.00,VWS V14.01,2013-02-06 11:20:00,
2013-02-06 05:25:00,57.1,51.7,29.92,SSE,168,4.0,4.0,82,0.00,,SKC,0.00,VWS V14.01,2013-02-06 11:25:00,
2013-02-06 05:30:00,56.9,51.5,29.92,SSE,163,6.0,6.0,82,0.00,,SKC,0.00,VWS V14.01,2013-02-06 11:30:00,
2013-02-06 05:35:00,56.8,51.7,29.92,SSE,165,4.0,4.0,83,0.00,,SKC,0.00,VWS V14.01,2013-02-06 11:35:00,
2013-02-06 05:40:00,56.8,51.7,29.92,SSE,167,5.0,5.0,83,0.00,,SKC,0.00,VWS V14.01,2013-02-06 11:40:00,
2013-02-06 05:45:00,56.8,51.7,29.92,South,185,2.0,5.0,83,0.00,,SKC,0.00,VWS V14.01,2013-02-06 11:45:00,
2013-02-06 05:50:00,56.7,51.6,29.92,South,177,2.0,4.0,83,0.00,,SKC,0.00,VWS V14.01,2013-02-06 11:50:00,
2013-02-06 05:56:00,56.6,51.8,29.92,South,178,4.0,5.0,84,0.00,,SKC,0.00,VWS V14.01,2013-02-06 11:56:00,
2013-02-06 06:01:00,56.5,52.0,29.92,South,175,5.0,6.0,85,0.00,,SKC,0.00,VWS V14.01,2013-02-06 12:01:00,
2013-02-06 06:06:00,56.4,52.0,29.92,South,169,3.0,5.0,85,0.00,,SKC,0.00,VWS V14.01,2013-02-06 12:06:00,
2013-02-06 06:11:00,56.2,51.8,29.92,SSE,165,3.0,4.0,85,0.00,,SKC,0.00,VWS V14.01,2013-02-06 12:11:00,
2013-02-06 06:16:00,56.2,52.1,29.91,SSE,160,3.0,4.0,86,0.00,,SKC,0.00,VWS V14.01,2013-02-06 12:16:00,
2013-02-06 06:21:00,56.1,52.0,29.91,SE,145,2.0,6.0,86,0.00,,SKC,0.00,VWS V14.01,2013-02-06 12:21:00,
2013-02-06 06:26:00,55.9,51.8,29.92,South,174,5.0,5.0,86,0.00,,SKC,0.00,VWS V14.01,2013-02-06 12:26:00,
2013-02-06 06:31:00,55.8,51.7,29.91,South,176,1.0,3.0,86,0.00,,SKC,0.00,VWS V14.01,2013-02-06 12:31:00,
2013-02-06 06:36:00,55.7,51.9,29.91,South,176,1.0,2.0,87,0.00,,SKC,0.00,VWS V14.01,2013-02-06 12:36:00,
2013-02-06 06:41:00,55.5,51.7,29.92,South,176,2.0,3.0,87,0.00,,SKC,0.00,VWS V14.01,2013-02-06 12:41:00,
2013-02-06 06:46:00,55.4,51.6,29.92,South,176,1.0,5.0,87,0.00,,SKC,0.00,VWS V14.01,2013-02-06 12:46:00,
2013-02-06 06:51:00,55.3,51.5,29.91,South,176,1.0,1.0,87,0.00,,SKC,0.00,VWS V14.01,2013-02-06 12:51:00,
2013-02-06 06:56:00,55.4,51.6,29.91,South,173,3.0,5.0,87,0.00,,SKC,0.00,VWS V14.01,2013-02-06 12:56:00,
2013-02-06 07:01:00,55.4,51.6,29.91,SSE,163,3.0,5.0,87,0.00,,SKC,0.00,VWS V14.01,2013-02-06 13:01:00,
2013-02-06 07:06:00,55.5,51.7,29.91,SSW,192,3.0,4.0,87,0.00,,SKC,0.00,VWS V14.01,2013-02-06 13:06:00,
2013-02-06 07:11:00,55.4,51.6,29.91,South,183,3.0,4.0,87,0.00,,SKC,0.00,VWS V14.01,2013-02-06 13:11:00,
2013-02-06 07:16:00,55.4,51.6,29.92,South,183,1.0,2.0,87,0.00,,SKC,0.00,VWS V14.01,2013-02-06 13:16:00,
2013-02-06 07:21:00,55.4,51.6,29.91,South,183,1.0,2.0,87,0.00,,SKC,0.00,VWS V14.01,2013-02-06 13:21:00,
2013-02-06 07:26:00,55.4,51.6,29.92,South,183,0.0,0.0,87,0.00,,SKC,0.00,VWS V14.01,2013-02-06 13:26:00,
2013-02-06 07:31:00,55.4,51.6,29.91,South,183,0.0,0.0,87,0.00,,SKC,0.00,VWS V14.01,2013-02-06 13:31:00,
2013-02-06 07:36:00,55.3,51.5,29.92,South,183,0.0,1.0,87,0.00,,SKC,0.00,VWS V14.01,2013-02-06 13:36:00,
2013-02-06 07:41:00,55.3,51.5,29.92,South,183,0.0,0.0,87,0.00,,SKC,0.00,VWS V14.01,2013-02-06 13:41:00,
2013-02-06 07:46:00,55.3,51.5,29.92,South,183,1.0,1.0,87,0.00,,SKC,0.00,VWS V14.01,2013-02-06 13:46:00,
2013-02-06 07:51:00,55.2,51.4,29.91,South,183,0.0,1.0,87,0.00,,SKC,0.00,VWS V14.01,2013-02-06 13:51:00,
2013-02-06 07:56:00,55.2,51.4,29.92,South,183,0.0,0.0,87,0.00,,SKC,0.00,VWS V14.01,2013-02-06 13:56:00,
2013-02-06 08:01:00,55.2,51.4,29.91,South,183,0.0,0.0,87,0.00,,SKC,0.00,VWS V14.01,2013-02-06 14:01:00,
2013-02-06 08:06:00,55.3,51.5,29.91,South,183,0.0,2.0,87,0.00,,SKC,0.00,VWS V14.01,2013-02-06 14:06:00,
2013-02-06 08:11:00,55.6,51.8,29.91,South,183,0.0,1.0,87,0.00,,SKC,0.00,VWS V14.01,2013-02-06 14:11:00,
2013-02-06 08:16:00,55.8,52.3,29.91,South,183,0.0,2.0,88,0.00,,SKC,0.00,VWS V14.01,2013-02-06 14:16:00,
2013-02-06 08:21:00,56.0,52.2,29.91,South,183,0.0,1.0,87,0.00,,SKC,0.00,VWS V14.01,2013-02-06 14:21:00,
2013-02-06 08:26:00,56.2,52.4,29.91,South,183,0.0,0.0,87,0.00,,SKC,0.00,VWS V14.01,2013-02-06 14:26:00,
2013-02-06 08:31:00,56.3,52.5,29.91,South,183,0.0,0.0,87,0.00,,SKC,0.00,VWS V14.01,2013-02-06 14:31:00,
2013-02-06 08:36:00,56.4,52.6,29.92,South,183,0.0,1.0,87,0.00,,SKC,0.00,VWS V14.01,2013-02-06 14:36:00,
2013-02-06 08:41:00,56.5,52.7,29.92,South,183,2.0,2.0,87,0.00,,SKC,0.00,VWS V14.01,2013-02-06 14:41:00,
2013-02-06 08:46:00,56.6,52.8,29.92,South,183,0.0,2.0,87,0.00,,SKC,0.00,VWS V14.01,2013-02-06 14:46:00,
2013-02-06 08:51:00,56.7,52.9,29.92,South,183,0.0,1.0,87,0.00,,SKC,0.00,VWS V14.01,2013-02-06 14:51:00,
2013-02-06 08:56:00,56.9,53.1,29.92,South,183,1.0,3.0,87,0.00,,SKC,0.00,VWS V14.01,2013-02-06 14:56:00,
2013-02-06 09:01:00,57.3,53.5,29.92,SSE,161,1.0,2.0,87,0.00,,SKC,0.00,VWS V14.01,2013-02-06 15:01:00,
2013-02-06 09:06:00,57.9,54.1,29.92,SE,144,5.0,5.0,87,0.00,,SKC,0.00,VWS V14.01,2013-02-06 15:06:00,
2013-02-06 09:11:00,58.0,53.8,29.92,South,175,4.0,4.0,86,0.00,,SKC,0.00,VWS V14.01,2013-02-06 15:11:00,
2013-02-06 09:16:00,58.0,53.8,29.92,South,171,2.0,3.0,86,0.00,,SKC,0.00,VWS V14.01,2013-02-06 15:16:00,
2013-02-06 09:21:00,58.5,54.3,29.92,SSE,165,3.0,5.0,86,0.00,,SKC,0.00,VWS V14.01,2013-02-06 15:21:00,
2013-02-06 09:26:00,58.5,54.0,29.92,SE,140,7.0,9.0,85,0.00,,SKC,0.00,VWS V14.01,2013-02-06 15:26:00,
2013-02-06 09:31:00,58.4,53.9,29.92,South,170,4.0,7.0,85,0.00,,SKC,0.00,VWS V14.01,2013-02-06 15:31:00,
2013-02-06 09:36:00,59.0,54.8,29.92,South,183,7.0,7.0,86,0.00,,SKC,0.00,VWS V14.01,2013-02-06 15:36:00,
2013-02-06 09:41:00,59.0,54.5,29.92,SSE,168,7.0,8.0,85,0.00,,SKC,0.00,VWS V14.01,2013-02-06 15:41:00,
2013-02-06 09:46:00,59.0,54.5,29.92,South,188,7.0,7.0,85,0.00,,SKC,0.00,VWS V14.01,2013-02-06 15:46:00,
2013-02-06 09:51:00,59.0,54.5,29.92,South,190,4.0,9.0,85,0.00,,SKC,0.00,VWS V14.01,2013-02-06 15:51:00,
2013-02-06 09:56:00,59.3,54.8,29.92,SSE,163,5.0,5.0,85,0.00,,SKC,0.00,VWS V14.01,2013-02-06 15:56:00,
2013-02-06 10:01:00,59.9,55.1,29.92,South,181,6.0,10.0,84,0.00,,SKC,0.00,VWS V14.01,2013-02-06 16:01:00,
2013-02-06 10:06:00,60.2,55.0,29.92,SSE,161,3.0,9.0,83,0.00,,SKC,0.00,VWS V14.01,2013-02-06 16:06:00,
2013-02-06 10:11:00,60.7,54.8,29.92,South,186,8.0,10.0,81,0.00,,SKC,0.00,VWS V14.01,2013-02-06 16:11:00,
2013-02-06 10:16:00,61.8,55.9,29.92,SSE,168,6.0,7.0,81,0.00,,SKC,0.00,VWS V14.01,2013-02-06 16:16:00,
2013-02-06 10:21:00,62.2,55.6,29.92,SSW,201,7.0,12.0,79,0.00,,SKC,0.00,VWS V14.01,2013-02-06 16:21:00,
2013-02-06 10:26:00,61.0,54.5,29.92,SSW,194,10.0,10.0,79,0.00,,SKC,0.00,VWS V14.01,2013-02-06 16:26:00,
2013-02-06 10:31:00,61.7,55.5,29.92,SSE,161,6.0,11.0,80,0.00,,SKC,0.00,VWS V14.01,2013-02-06 16:31:00,
2013-02-06 10:36:00,62.9,55.6,29.92,SSW,210,6.0,11.0,77,0.00,,SKC,0.00,VWS V14.01,2013-02-06 16:36:00,
2013-02-06 10:41:00,63.0,55.7,29.92,SSE,166,7.0,12.0,77,0.00,,SKC,0.00,VWS V14.01,2013-02-06 16:41:00,
2013-02-06 10:46:00,63.3,55.6,29.92,SE,142,5.0,11.0,76,0.00,,SKC,0.00,VWS V14.01,2013-02-06 16:46:00,
2013-02-06 10:51:00,63.6,55.5,29.91,SSE,164,9.0,12.0,75,0.00,,SKC,0.00,VWS V14.01,2013-02-06 16:51:00,
2013-02-06 10:56:00,63.8,55.7,29.91,SSE,167,5.0,8.0,75,0.00,,SKC,0.00,VWS V14.01,2013-02-06 16:56:00,
2013-02-06 11:01:00,64.0,56.3,29.91,SSE,153,7.0,10.0,76,0.00,,SKC,0.00,VWS V14.01,2013-02-06 17:01:00,
2013-02-06 11:06:00,64.8,56.3,29.91,SE,146,7.0,11.0,74,0.00,,SKC,0.00,VWS V14.01,2013-02-06 17:06:00,
2013-02-06 11:11:00,65.5,56.2,29.91,South,177,3.0,10.0,72,0.00,,SKC,0.00,VWS V14.01,2013-02-06 17:11:00,
2013-02-06 11:16:00,66.1,56.4,29.91,South,191,3.0,9.0,71,0.00,,SKC,0.00,VWS V14.01,2013-02-06 17:16:00,
2013-02-06 11:21:00,66.1,56.4,29.90,SSW,196,5.0,8.0,71,0.00,,SKC,0.00,VWS V14.01,2013-02-06 17:21:00,
2013-02-06 11:26:00,66.8,56.7,29.90,South,188,5.0,6.0,70,0.00,,SKC,0.00,VWS V14.01,2013-02-06 17:26:00,
2013-02-06 11:31:00,66.5,56.4,29.90,ESE,114,2.0,10.0,70,0.00,,SKC,0.00,VWS V14.01,2013-02-06 17:31:00,
2013-02-06 11:36:00,66.8,57.1,29.90,SSE,161,8.0,10.0,71,0.00,,SKC,0.00,VWS V14.01,2013-02-06 17:36:00,
2013-02-06 11:41:00,67.7,58.0,29.90,SE,138,7.0,10.0,71,0.00,,SKC,0.00,VWS V14.01,2013-02-06 17:41:00,
2013-02-06 11:46:00,67.4,57.3,29.89,SSE,153,15.0,15.0,70,0.00,,SKC,0.00,VWS V14.01,2013-02-06 17:46:00,
2013-02-06 11:51:00,66.8,57.5,29.89,South,182,9.0,9.0,72,0.00,,SKC,0.00,VWS V14.01,2013-02-06 17:51:00,
2013-02-06 11:56:00,67.4,57.3,29.89,South,177,7.0,11.0,70,0.00,,SKC,0.00,VWS V14.01,2013-02-06 17:56:00,
2013-02-06 12:01:00,67.2,57.1,29.89,SSW,198,6.0,7.0,70,0.00,,SKC,0.00,VWS V14.01,2013-02-06 18:01:00,
2013-02-06 12:06:00,67.2,57.5,29.88,SE,136,2.0,5.0,71,0.00,,SKC,0.00,VWS V14.01,2013-02-06 18:06:00,
2013-02-06 12:11:00,68.1,57.6,29.88,SSE,164,4.0,6.0,69,0.00,,SKC,0.00,VWS V14.01,2013-02-06 18:11:00,
2013-02-06 12:16:00,69.2,57.4,29.88,South,181,5.0,9.0,66,0.00,,SKC,0.00,VWS V14.01,2013-02-06 18:16:00,
2013-02-06 12:21:00,69.4,57.6,29.87,SSW,196,5.0,12.0,66,0.00,,SKC,0.00,VWS V14.01,2013-02-06 18:21:00,
2013-02-06 12:26:00,68.3,56.9,29.87,SSE,157,9.0,11.0,67,0.00,,SKC,0.00,VWS V14.01,2013-02-06 18:26:00,
2013-02-06 12:31:00,68.4,57.8,29.87,SSW,195,14.0,14.0,69,0.00,,SKC,0.00,VWS V14.01,2013-02-06 18:31:00,
2013-02-06 12:36:00,69.1,57.7,29.86,SSW,211,5.0,8.0,67,0.00,,SKC,0.00,VWS V14.01,2013-02-06 18:36:00,
2013-02-06 12:41:00,69.5,56.4,29.86,SSW,205,6.0,9.0,63,0.00,,SKC,0.00,VWS V14.01,2013-02-06 18:41:00,
2013-02-06 12:46:00,70.3,58.0,29.86,South,174,4.0,11.0,65,0.00,,SKC,0.00,VWS V14.01,2013-02-06 18:46:00,
2013-02-06 12:51:00,71.1,57.4,29.86,South,188,10.0,15.0,62,0.00,,SKC,0.00,VWS V14.01,2013-02-06 18:51:00,
2013-02-06 12:56:00,71.8,57.2,29.85,SSW,193,6.0,10.0,60,0.00,,SKC,0.00,VWS V14.01,2013-02-06 18:56:00,
2013-02-06 13:01:00,71.6,57.0,29.85,SSW,209,5.0,10.0,60,0.00,,SKC,0.00,VWS V14.01,2013-02-06 19:01:00,
2013-02-06 13:06:00,72.2,56.6,29.85,SSW,204,8.0,14.0,58,0.00,,SKC,0.00,VWS V14.01,2013-02-06 19:06:00,
2013-02-06 13:11:00,72.2,57.1,29.84,SSW,195,5.0,5.0,59,0.00,,SKC,0.00,VWS V14.01,2013-02-06 19:11:00,
2013-02-06 13:16:00,73.8,57.6,29.84,SW,216,5.0,14.0,57,0.00,,SKC,0.00,VWS V14.01,2013-02-06 19:16:00,
2013-02-06 13:21:00,72.6,56.5,29.84,South,173,7.0,11.0,57,0.00,,SKC,0.00,VWS V14.01,2013-02-06 19:21:00,
2013-02-06 13:26:00,72.0,56.4,29.84,SSW,198,9.0,10.0,58,0.00,,SKC,0.00,VWS V14.01,2013-02-06 19:26:00,
2013-02-06 13:31:00,70.8,56.7,29.83,SSW,199,6.0,6.0,61,0.00,,SKC,0.00,VWS V14.01,2013-02-06 19:31:00,
2013-02-06 13:36:00,70.9,56.3,29.83,SSW,205,4.0,6.0,60,0.00,,SKC,0.00,VWS V14.01,2013-02-06 19:36:00,
2013-02-06 13:41:00,70.7,56.2,29.82,SSW,200,7.0,7.0,60,0.00,,SKC,0.00,VWS V14.01,2013-02-06 19:41:00,
2013-02-06 13:46:00,70.2,56.1,29.82,SSW,203,4.0,4.0,61,0.00,,SKC,0.00,VWS V14.01,2013-02-06 19:46:00,
2013-02-06 13:51:00,71.1,56.5,29.82,SW,222,2.0,3.0,60,0.00,,SKC,0.00,VWS V14.01,2013-02-06 19:51:00,
2013-02-06 13:56:00,70.4,56.3,29.82,SSW,211,5.0,9.0,61,0.00,,SKC,0.00,VWS V14.01,2013-02-06 19:56:00,
2013-02-06 14:01:00,70.6,56.5,29.81,South,187,9.0,9.0,61,0.00,,SKC,0.00,VWS V14.01,2013-02-06 20:01:00,
2013-02-06 14:06:00,71.1,56.5,29.81,South,182,5.0,5.0,60,0.00,,SKC,0.00,VWS V14.01,2013-02-06 20:06:00,
2013-02-06 14:11:00,71.3,56.7,29.81,SSE,153,6.0,13.0,60,0.00,,SKC,0.00,VWS V14.01,2013-02-06 20:11:00,
2013-02-06 14:16:00,71.2,56.6,29.81,SSW,193,10.0,10.0,60,0.00,,SKC,0.00,VWS V14.01,2013-02-06 20:16:00,
2013-02-06 14:21:00,71.7,57.1,29.80,SSW,208,7.0,8.0,60,0.00,,SKC,0.00,VWS V14.01,2013-02-06 20:21:00,
2013-02-06 14:26:00,73.0,56.9,29.80,SSW,195,15.0,15.0,57,0.00,,SKC,0.00,VWS V14.01,2013-02-06 20:26:00,
2013-02-06 14:31:00,73.5,57.3,29.80,South,183,7.0,11.0,57,0.00,,SKC,0.00,VWS V14.01,2013-02-06 20:31:00,
2013-02-06 14:36:00,72.1,56.0,29.80,SSW,213,10.0,11.0,57,0.00,,SKC,0.00,VWS V14.01,2013-02-06 20:36:00,
2013-02-06 14:41:00,71.1,56.5,29.79,SSW,202,12.0,15.0,60,0.00,,SKC,0.00,VWS V14.01,2013-02-06 20:41:00,
2013-02-06 14:46:00,71.7,56.6,29.79,South,190,15.0,15.0,59,0.00,,SKC,0.00,VWS V14.01,2013-02-06 20:46:00,
2013-02-06 14:51:00,71.3,57.2,29.79,SSW,194,13.0,17.0,61,0.00,,SKC,0.00,VWS V14.01,2013-02-06 20:51:00,
2013-02-06 14:56:00,71.9,57.3,29.79,South,176,5.0,5.0,60,0.00,,SKC,0.00,VWS V14.01,2013-02-06 20:56:00,
2013-02-06 15:01:00,72.4,57.3,29.79,South,184,11.0,11.0,59,0.00,,SKC,0.00,VWS V14.01,2013-02-06 21:01:00,
2013-02-06 15:06:00,71.9,56.8,29.79,SSE,164,6.0,11.0,59,0.00,,SKC,0.00,VWS V14.01,2013-02-06 21:06:00,
2013-02-06 15:11:00,72.6,57.0,29.78,South,180,10.0,10.0,58,0.00,,SKC,0.00,VWS V14.01,2013-02-06 21:11:00,
2013-02-06 15:16:00,72.6,57.0,29.78,SSW,196,6.0,9.0,58,0.00,,SKC,0.00,VWS V14.01,2013-02-06 21:16:00,
2013-02-06 15:21:00,72.9,57.3,29.78,SSW,194,4.0,4.0,58,0.00,,SKC,0.00,VWS V14.01,2013-02-06 21:21:00,
2013-02-06 15:26:00,73.3,57.2,29.78,SSW,202,11.0,13.0,57,0.00,,SKC,0.00,VWS V14.01,2013-02-06 21:26:00,
2013-02-06 15:31:00,72.9,57.3,29.78,South,187,11.0,14.0,58,0.00,,SKC,0.00,VWS V14.01,2013-02-06 21:31:00,
2013-02-06 15:36:00,72.4,56.8,29.78,SSE,161,12.0,13.0,58,0.00,,SKC,0.00,VWS V14.01,2013-02-06 21:36:00,
2013-02-06 15:41:00,71.8,56.7,29.77,SW,219,4.0,5.0,59,0.00,,SKC,0.00,VWS V14.01,2013-02-06 21:41:00,
2013-02-06 15:46:00,72.5,56.9,29.77,SSE,163,12.0,12.0,58,0.00,,SKC,0.00,VWS V14.01,2013-02-06 21:46:00,
2013-02-06 15:51:00,72.7,57.1,29.77,South,190,10.0,11.0,58,0.00,,SKC,0.00,VWS V14.01,2013-02-06 21:51:00,
2013-02-06 15:56:00,71.5,56.0,29.77,WSW,244,6.0,9.0,58,0.00,,SKC,0.00,VWS V14.01,2013-02-06 21:56:00,
2013-02-06 16:01:00,71.5,56.9,29.77,South,178,11.0,11.0,60,0.00,,SKC,0.00,VWS V14.01,2013-02-06 22:01:00,
2013-02-06 16:06:00,72.4,56.8,29.77,SSW,192,10.0,10.0,58,0.00,,SKC,0.00,VWS V14.01,2013-02-06 22:06:00,
2013-02-06 16:11:00,71.6,55.6,29.77,SSW,204,9.0,9.0,57,0.00,,SKC,0.00,VWS V14.01,2013-02-06 22:11:00,
2013-02-06 16:16:00,71.0,56.4,29.77,SSE,167,7.0,11.0,60,0.00,,SKC,0.00,VWS V14.01,2013-02-06 22:16:00,
2013-02-06 16:21:00,70.5,57.3,29.77,SSE,163,6.0,7.0,63,0.00,,SKC,0.00,VWS V14.01,2013-02-06 22:21:00,
2013-02-06 16:26:00,70.0,57.3,29.77,SSW,202,10.0,14.0,64,0.00,,SKC,0.00,VWS V14.01,2013-02-06 22:26:00,
2013-02-06 16:31:00,69.8,57.1,29.77,South,183,10.0,10.0,64,0.00,,SKC,0.00,VWS V14.01,2013-02-06 22:31:00,
2013-02-06 16:36:00,69.7,57.0,29.77,South,181,8.0,10.0,64,0.00,,SKC,0.00,VWS V14.01,2013-02-06 22:36:00,
2013-02-06 16:41:00,69.8,57.1,29.78,SSE,160,9.0,10.0,64,0.00,,SKC,0.00,VWS V14.01,2013-02-06 22:41:00,
2013-02-06 16:46:00,70.4,57.2,29.78,SSE,166,5.0,5.0,63,0.00,,SKC,0.00,VWS V14.01,2013-02-06 22:46:00,
2013-02-06 16:51:00,70.5,57.3,29.78,SSE,150,9.0,12.0,63,0.00,,SKC,0.00,VWS V14.01,2013-02-06 22:51:00,
2013-02-06 16:56:00,70.5,57.8,29.78,South,184,7.0,7.0,64,0.00,,SKC,0.00,VWS V14.01,2013-02-06 22:56:00,
2013-02-06 17:01:00,70.6,57.8,29.78,ESE,121,10.0,10.0,64,0.00,,SKC,0.00,VWS V14.01,2013-02-06 23:01:00,
2013-02-06 17:06:00,70.3,57.6,29.77,South,184,10.0,13.0,64,0.00,,SKC,0.00,VWS V14.01,2013-02-06 23:06:00,
2013-02-06 17:11:00,70.6,57.4,29.78,South,169,7.0,9.0,63,0.00,,SKC,0.00,VWS V14.01,2013-02-06 23:11:00,
2013-02-06 17:16:00,70.1,56.5,29.78,SSW,199,12.0,16.0,62,0.00,,SKC,0.00,VWS V14.01,2013-02-06 23:16:00,
2013-02-06 17:21:00,69.4,56.7,29.78,SSW,207,10.0,14.0,64,0.00,,SKC,0.00,VWS V14.01,2013-02-06 23:21:00,
2013-02-06 17:26:00,69.0,56.8,29.78,SSE,160,7.0,11.0,65,0.00,,SKC,0.00,VWS V14.01,2013-02-06 23:26:00,
2013-02-06 17:31:00,68.9,57.1,29.78,South,175,9.0,11.0,66,0.00,,SKC,0.00,VWS V14.01,2013-02-06 23:31:00,
2013-02-06 17:36:00,68.5,56.7,29.78,South,178,9.0,9.0,66,0.00,,SKC,0.00,VWS V14.01,2013-02-06 23:36:00,
2013-02-06 17:41:00,68.1,56.7,29.78,South,190,4.0,5.0,67,0.00,,SKC,0.00,VWS V14.01,2013-02-06 23:41:00,
2013-02-06 17:46:00,67.8,56.9,29.78,SSW,196,15.0,16.0,68,0.00,,SKC,0.00,VWS V14.01,2013-02-06 23:46:00,
2013-02-06 17:51:00,67.3,56.8,29.78,South,182,7.0,10.0,69,0.00,,SKC,0.00,VWS V14.01,2013-02-06 23:51:00,
2013-02-06 17:56:00,67.1,57.0,29.78,South,189,4.0,7.0,70,0.00,,SKC,0.00,VWS V14.01,2013-02-06 23:56:00,
2013-02-06 18:01:00,66.9,56.8,29.79,South,191,11.0,11.0,70,0.00,,SKC,0.00,VWS V14.01,2013-02-07 00:01:00,
2013-02-06 18:06:00,66.6,56.9,29.79,SSW,208,6.0,7.0,71,0.00,,SKC,0.00,VWS V14.01,2013-02-07 00:06:00,
2013-02-06 18:11:00,66.2,56.5,29.79,SSW,196,7.0,7.0,71,0.00,,SKC,0.00,VWS V14.01,2013-02-07 00:11:00,
2013-02-06 18:16:00,65.8,56.5,29.80,South,182,4.0,6.0,72,0.00,,SKC,0.00,VWS V14.01,2013-02-07 00:16:00,
2013-02-06 18:21:00,65.6,56.7,29.80,South,181,5.0,6.0,73,0.00,,SKC,0.00,VWS V14.01,2013-02-07 00:21:00,
2013-02-06 18:27:00,65.2,56.3,29.80,SSE,168,1.0,5.0,73,0.00,,SKC,0.00,VWS V14.01,2013-02-07 00:27:00,
2013-02-06 18:32:00,64.9,56.4,29.80,SSE,165,5.0,5.0,74,0.00,,SKC,0.00,VWS V14.01,2013-02-07 00:32:00,
2013-02-06 18:37:00,64.7,56.2,29.80,SSE,161,0.0,4.0,74,0.00,,SKC,0.00,VWS V14.01,2013-02-07 00:37:00,
2013-02-06 18:42:00,64.4,56.3,29.81,SSE,163,2.0,4.0,75,0.00,,SKC,0.00,VWS V14.01,2013-02-07 00:42:00,
2013-02-06 18:47:00,64.1,56.0,29.81,SSE,163,4.0,5.0,75,0.00,,SKC,0.00,VWS V14.01,2013-02-07 00:47:00,
2013-02-06 18:52:00,64.1,56.0,29.81,SE,143,2.0,8.0,75,0.00,,SKC,0.00,VWS V14.01,2013-02-07 00:52:00,
2013-02-06 18:57:00,64.1,56.0,29.82,SSE,153,3.0,6.0,75,0.00,,SKC,0.00,VWS V14.01,2013-02-07 00:57:00,
2013-02-06 19:02:00,64.0,56.3,29.82,SSE,158,3.0,4.0,76,0.00,,SKC,0.00,VWS V14.01,2013-02-07 01:02:00,
2013-02-06 19:07:00,63.7,56.0,29.83,South,176,4.0,5.0,76,0.00,,SKC,0.00,VWS V14.01,2013-02-07 01:07:00,
2013-02-06 19:12:00,63.3,56.0,29.83,SSE,167,3.0,6.0,77,0.00,,SKC,0.00,VWS V14.01,2013-02-07 01:12:00,
2013-02-06 19:17:00,62.9,55.6,29.82,South,175,5.0,6.0,77,0.00,,SKC,0.00,VWS V14.01,2013-02-07 01:17:00,
2013-02-06 19:22:00,62.7,55.8,29.83,SSE,161,4.0,6.0,78,0.00,,SKC,0.00,VWS V14.01,2013-02-07 01:22:00,
2013-02-06 19:27:00,62.4,55.5,29.83,SSE,163,1.0,3.0,78,0.00,,SKC,0.00,VWS V14.01,2013-02-07 01:27:00,
2013-02-06 19:32:00,62.3,55.7,29.83,SSE,156,4.0,7.0,79,0.00,,SKC,0.00,VWS V14.01,2013-02-07 01:32:00,
2013-02-06 19:37:00,62.2,55.6,29.83,SSE,164,4.0,5.0,79,0.00,,SKC,0.00,VWS V14.01,2013-02-07 01:37:00,
2013-02-06 19:42:00,62.1,55.9,29.83,SSE,167,2.0,4.0,80,0.00,,SKC,0.00,VWS V14.01,2013-02-07 01:42:00,
2013-02-06 19:47:00,62.1,55.9,29.83,SSE,148,3.0,6.0,80,0.00,,SKC,0.00,VWS V14.01,2013-02-07 01:47:00,
2013-02-06 19:52:00,62.1,55.9,29.83,SSE,168,2.0,4.0,80,0.00,,SKC,0.00,VWS V14.01,2013-02-07 01:52:00,
2013-02-06 19:57:00,62.2,55.6,29.84,SSE,163,3.0,5.0,79,0.00,,SKC,0.00,VWS V14.01,2013-02-07 01:57:00,
2013-02-06 20:02:00,62.3,55.7,29.84,South,171,4.0,5.0,79,0.00,,SKC,0.00,VWS V14.01,2013-02-07 02:02:00,
2013-02-06 20:07:00,62.5,55.9,29.84,SSE,161,2.0,4.0,79,0.00,,SKC,0.00,VWS V14.01,2013-02-07 02:07:00,
2013-02-06 20:12:00,62.4,55.8,29.84,SSE,148,3.0,6.0,79,0.00,,SKC,0.00,VWS V14.01,2013-02-07 02:12:00,
2013-02-06 20:17:00,62.4,55.8,29.84,SSE,161,4.0,5.0,79,0.00,,SKC,0.00,VWS V14.01,2013-02-07 02:17:00,
2013-02-06 20:22:00,62.2,55.6,29.84,SSE,155,3.0,4.0,79,0.00,,SKC,0.00,VWS V14.01,2013-02-07 02:22:00,
2013-02-06 20:27:00,62.1,55.5,29.85,South,182,4.0,13.0,79,0.00,,SKC,0.00,VWS V14.01,2013-02-07 02:27:00,
2013-02-06 20:32:00,62.0,55.4,29.85,SSE,168,6.0,7.0,79,0.00,,SKC,0.00,VWS V14.01,2013-02-07 02:32:00,
2013-02-06 20:37:00,61.9,55.3,29.85,SSE,168,6.0,9.0,79,0.00,,SKC,0.00,VWS V14.01,2013-02-07 02:37:00,
2013-02-06 20:42:00,61.8,55.2,29.85,South,171,4.0,7.0,79,0.00,,SKC,0.00,VWS V14.01,2013-02-07 02:42:00,
2013-02-06 20:47:00,61.6,55.4,29.85,SSW,205,11.0,11.0,80,0.00,,SKC,0.00,VWS V14.01,2013-02-07 02:47:00,
2013-02-06 20:52:00,61.5,55.3,29.85,South,171,7.0,9.0,80,0.00,,SKC,0.00,VWS V14.01,2013-02-07 02:52:00,
2013-02-06 20:57:00,61.4,55.2,29.85,South,173,6.0,9.0,80,0.00,,SKC,0.00,VWS V14.01,2013-02-07 02:57:00,
2013-02-06 21:02:00,61.2,55.0,29.85,South,185,6.0,9.0,80,0.00,,SKC,0.00,VWS V14.01,2013-02-07 03:02:00,
2013-02-06 21:07:00,60.9,55.0,29.85,SSE,156,6.0,9.0,81,0.00,,SKC,0.00,VWS V14.01,2013-02-07 03:07:00,
2013-02-06 21:12:00,60.6,54.8,29.86,South,179,8.0,9.0,81,0.00,,SKC,0.00,VWS V14.01,2013-02-07 03:12:00,
2013-02-06 21:17:00,60.3,54.5,29.86,South,186,5.0,9.0,81,0.00,,SKC,0.00,VWS V14.01,2013-02-07 03:17:00,
2013-02-06 21:22:00,60.0,54.5,29.86,South,184,4.0,6.0,82,0.00,,SKC,0.00,VWS V14.01,2013-02-07 03:22:00,
2013-02-06 21:27:00,59.6,54.4,29.86,SSE,165,6.0,9.0,83,0.00,,SKC,0.00,VWS V14.01,2013-02-07 03:27:00,
2013-02-06 21:32:00,59.4,54.2,29.86,South,188,6.0,7.0,83,0.00,,SKC,0.00,VWS V14.01,2013-02-07 03:32:00,
2013-02-06 21:37:00,59.1,54.3,29.86,South,181,4.0,7.0,84,0.00,,SKC,0.00,VWS V14.01,2013-02-07 03:37:00,
2013-02-06 21:42:00,59.0,54.2,29.87,South,191,5.0,12.0,84,0.00,,SKC,0.00,VWS V14.01,2013-02-07 03:42:00,
2013-02-06 21:47:00,59.0,54.5,29.87,South,183,2.0,6.0,85,0.00,,SKC,0.00,VWS V14.01,2013-02-07 03:47:00,
2013-02-06 21:52:00,59.0,54.5,29.87,SSW,196,3.0,10.0,85,0.00,,SKC,0.00,VWS V14.01,2013-02-07 03:52:00,
2013-02-06 21:57:00,59.0,54.8,29.87,South,182,3.0,7.0,86,0.00,,SKC,0.00,VWS V14.01,2013-02-07 03:57:00,
2013-02-06 22:02:00,59.0,54.8,29.87,South,178,7.0,10.0,86,0.00,,SKC,0.00,VWS V14.01,2013-02-07 04:02:00,
2013-02-06 22:07:00,59.0,54.8,29.86,SSW,196,5.0,10.0,86,0.00,,SKC,0.00,VWS V14.01,2013-02-07 04:07:00,
2013-02-06 22:12:00,58.9,54.7,29.87,South,173,3.0,5.0,86,0.00,,SKC,0.00,VWS V14.01,2013-02-07 04:12:00,
2013-02-06 22:17:00,58.5,54.3,29.87,South,171,4.0,6.0,86,0.00,,SKC,0.00,VWS V14.01,2013-02-07 04:17:00,
2013-02-06 22:22:00,58.2,54.4,29.87,South,171,3.0,6.0,87,0.00,,SKC,0.00,VWS V14.01,2013-02-07 04:22:00,
2013-02-06 22:27:00,58.0,54.2,29.87,South,175,2.0,5.0,87,0.00,,SKC,0.00,VWS V14.01,2013-02-07 04:27:00,
2013-02-06 22:32:00,57.8,54.0,29.87,SSE,165,2.0,3.0,87,0.00,,SKC,0.00,VWS V14.01,2013-02-07 04:32:00,
2013-02-06 22:37:00,57.5,53.7,29.86,South,171,1.0,3.0,87,0.00,,SKC,0.00,VWS V14.01,2013-02-07 04:37:00,
2013-02-06 22:42:00,57.3,53.5,29.86,South,176,5.0,5.0,87,0.00,,SKC,0.00,VWS V14.01,2013-02-07 04:42:00,
2013-02-06 22:47:00,57.1,53.6,29.86,SSE,166,4.0,5.0,88,0.00,,SKC,0.00,VWS V14.01,2013-02-07 04:47:00,
2013-02-06 22:52:00,56.9,53.4,29.86,SSE,165,4.0,5.0,88,0.00,,SKC,0.00,VWS V14.01,2013-02-07 04:52:00,
2013-02-06 22:57:00,56.8,53.3,29.86,SSE,166,5.0,5.0,88,0.00,,SKC,0.00,VWS V14.01,2013-02-07 04:57:00,
2013-02-06 23:00:00,56.7,53.2,29.86,SSE,166,3.0,3.0,88,0.00,,SKC,0.00,VWS V14.01,2013-02-07 05:00:00,
2013-02-06 23:01:00,56.6,53.1,29.86,SSE,165,5.0,5.0,88,0.00,,SKC,0.00,VWS V14.01,2013-02-07 05:01:00,
2013-02-06 23:06:00,56.5,53.0,29.86,SSE,165,3.0,3.0,88,0.00,,SKC,0.00,VWS V14.01,2013-02-07 05:06:00,
2013-02-06 23:11:00,56.4,52.9,29.86,SSE,165,3.0,3.0,88,0.00,,SKC,0.00,VWS V14.01,2013-02-07 05:11:00,
2013-02-06 23:16:00,56.4,52.9,29.86,SSE,167,5.0,5.0,88,0.00,,SKC,0.00,VWS V14.01,2013-02-07 05:16:00,
2013-02-06 23:21:00,56.5,53.0,29.86,South,183,5.0,5.0,88,0.00,,SKC,0.00,VWS V14.01,2013-02-07 05:21:00,
2013-02-06 23:26:00,56.6,53.4,29.86,SSE,163,5.0,6.0,89,0.00,,SKC,0.00,VWS V14.01,2013-02-07 05:26:00,
2013-02-06 23:32:00,56.8,53.6,29.86,SSE,159,4.0,7.0,89,0.00,,SKC,0.00,VWS V14.01,2013-02-07 05:32:00,
2013-02-06 23:37:00,56.8,53.6,29.86,SE,134,5.0,7.0,89,0.00,,SKC,0.00,VWS V14.01,2013-02-07 05:37:00,
2013-02-06 23:42:00,56.7,53.5,29.87,SSE,155,3.0,8.0,89,0.00,,SKC,0.00,VWS V14.01,2013-02-07 05:42:00,
2013-02-06 23:47:00,56.7,53.5,29.87,SSE,160,4.0,6.0,89,0.00,,SKC,0.00,VWS V14.01,2013-02-07 05:47:00,
2013-02-06 23:52:00,56.7,53.5,29.87,South,184,9.0,9.0,89,0.00,,SKC,0.00,VWS V14.01,2013-02-07 05:52:00,
2013-02-06 23:57:00,56.7,53.5,29.87,South,169,7.0,9.0,89,0.00,,SKC,0.00,VWS V14.01,2013-02-07 05:57:00,